CZ-6A DEB, 61329

Orbit data source: Space-Track

CZ-6A DEB, 61329 is space debris in LEO originally from a launch on Tue, 06 Aug 2024 UTC launched from the Taiyaun Space Center, China (TSC). Debris objects in space refer to the collection of defunct objects orbiting the Earth. Examples of debris include non-operational satellites, rocket bodies, and fragments generated from explosions, collisions, or faulty payload assembly.

Loading next visibility...
Identifier
61329, 2024-140US
Orbit
LEO
Country
Flag of CNCN / PRC
Related business
Manufacturer
SAST
Mission
Spacecraft
Bus & Motor
Unknown
Mass
Unknown
Launch date (UTC)
2024-08-06 (2 years ago)
Launch vehicle
Unknown
Launch site
Taiyaun Space Center, China (TSC)
Object type
Payload
Rocket body
Debris
Shape & HBR
Unknown shape, 0.1 m
Radar Cross Section
Medium (>0.1 m² and <1 m²)

Expand to show TLE details & history
Last TLE update: 13 hours ago

TLE from 13 hours ago
0 CZ-6A DEB
1 61329U 24140US  26171.44394645  .00002034  00000-0  73736-3 0  9996
2 61329  88.5833 239.3578 0079039  69.7543 291.2129 14.31294324 93558
Epoch: 2026-06-20T10:39Z
TLE epoch observation values (Epoch: 2026-06-20T10:39:16.973Z)
Latitude
0.00005°
Longitude
170.87859°
Altitude
770.369 km
Speed
7.479 km/s
True Right ascension
15h 57m 25s
True Declination
0° 00' 00"
Sunlit
Object was in full shadow at epoch
Visualization orbit readout
Latitude
Unknown
Longitude
Unknown
Altitude
Unknown
Speed
Unknown
Apparent Right ascension
Unknown
Apparent Declination
Unknown
Sunlit
N/A
Visualization observer readout
Local Sidereal Time
10:17:10
Azimuth
Unknown
Elevation
Unknown
Doppler factor
Unknown
Orbital elements
Apogee altitude
840.957 km
Perigee altitude
727.734 km
Semi-major axis
7,162.482 km
Eccentricity
0.0079
Inclination
88.5833°
RAAN
239.3578°
Arg. of periapsis
69.7543°
True anomaly
290.36555°
Mean anomaly
291.2129°
Eccentric anomaly
290.78953°
Mean motion
3.58053 °/min
Orbital period
100.54 mins
BSTAR
0.00073736
Loading maneuver chart data...
Computing Atmospheric mass density...
Loading historical data...
Loading historical data...
Loading historical data...
Loading historical data...
Loading historical data...
Loading historical data...
Loading historical data...

Documentation

Showing up to 5 results
|